GW2280 Weather Reports


time (UTC)temp
C
wind
direction
speed
KPH
gust
KPH
rain 1hr
cm
rain 24hr
cm
rain mn
cm
humidity
%
barometer
mb
20260505164529 25 205 16.1 49.9 0.00 0.00 0.00 44 1008.4
20260505164013 25 223 27.4 49.9 0.00 0.00 0.00 43 1008.6
20260505163514 25 249 20.9 45.1 0.00 0.00 0.00 43 1008.9
20260505163027 25 222 27.4 45.1 0.00 0.00 0.00 43 1009.0
20260505162512 25 244 17.7 59.5 0.00 0.00 0.00 44 1009.1
20260505162012 25 211 22.5 59.5 0.00 0.00 0.00 44 1009.1
20260505161532 24 233 14.5 37.0 0.00 0.00 0.00 45 1009.2
20260505161013 24 236 20.9 40.2 0.00 0.00 0.00 46 1009.3
20260505160513 24 209 14.5 43.5 0.00 0.00 0.00 48 1009.4
20260505153030 22 212 11.3 37.0 0.00 0.00 0.00 48 1009.8
20260505152511 22 228 17.7 37.0 0.00 0.00 0.00 49 1010.0
20260505152012 22 225 11.3 32.2 0.00 0.00 0.00 50 1009.9
20260505151528 22 231 17.7 32.2 0.00 0.00 0.00 50 1010.1
20260505151011 22 191 17.7 29.0 0.00 0.00 0.00 50 1010.1
20260505150512 22 225 12.9 27.4 0.00 0.00 0.00 50 1010.0
20260505140517 18 216 12.9 27.4 0.00 0.00 0.00 58 1010.1
20260505125014 15 259 8.0 19.3 0.00 0.00 0.00 66 1010.3
20260505124543 15 360 11.3 24.1 0.00 0.00 0.00 66 1010.4
20260505124014 14 248 8.0 24.1 0.00 0.00 0.00 67 1010.3
20260505123520 14 282 8.0 25.7 0.00 0.00 0.00 67 1010.3
20260505123033 14 360 14.5 32.2 0.00 0.00 0.00 66 1010.2
20260505122513 14 360 14.5 32.2 0.00 0.00 0.00 66 1010.2
20260505122018 14 360 17.7 32.2 0.00 0.00 0.00 66 1010.0
20260505121532 14 317 12.9 25.7 0.00 0.00 0.00 67 1010.0
20260505121013 13 199 12.9 25.7 0.00 0.00 0.00 67 1009.8
20260505120513 13 209 9.7 22.5 0.00 0.00 0.00 68 1009.8
20260505120038 13 257 8.0 24.1 0.00 0.00 0.00 69 1009.9
20260505115513 12 215 11.3 24.1 0.00 0.00 0.00 69 1009.8
20260505115013 12 216 11.3 25.7 0.00 0.00 0.00 70 1009.9
20260505114531 12 213 12.9 25.7 0.00 0.00 0.00 71 1010.0
20260505114013 12 240 12.9 25.7 0.00 0.00 0.00 71 1009.9
20260505113514 11 0 9.7 24.1 0.00 0.00 0.00 72 1010.0
20260505113033 11 281 9.7 24.1 0.00 0.00 0.00 73 1010.1
20260505112510 11 215 14.5 24.1 0.00 0.00 0.00 73 1010.0
20260505112012 11 214 12.9 27.4 0.00 0.00 0.00 74 1010.1
20260505111532 11 246 12.9 25.7 0.00 0.00 0.00 74 1010.1
20260505111018 11 232 12.9 25.7 0.00 0.00 0.00 74 1010.1
20260505110512 10 213 12.9 27.4 0.00 0.00 0.00 75 1010.1
20260505102013 10 226 16.1 29.0 0.00 0.00 0.00 76 1010.0
20260505101538 10 229 16.1 29.0 0.00 0.00 0.00 76 1010.0
20260505101012 10 236 16.1 32.2 0.00 0.00 0.00 76 1009.9
20260505100516 10 206 16.1 32.2 0.00 0.00 0.00 76 1010.0
20260505100028 10 287 14.5 30.6 0.00 0.00 0.00 76 1009.9
20260505095512 10 250 17.7 30.6 0.00 0.00 0.00 75 1010.0
20260505095012 10 225 17.7 30.6 0.00 0.00 0.00 75 1009.9
20260505094532 10 233 19.3 30.6 0.00 0.00 0.00 75 1009.8
20260505094013 10 225 17.7 32.2 0.00 0.00 0.00 75 1009.9
20260505093515 10 232 16.1 32.2 0.00 0.00 0.00 74 1009.9
20260505093032 10 217 17.7 32.2 0.00 0.00 0.00 74 1009.9
20260505092515 10 202 16.1 35.4 0.00 0.00 0.00 74 1010.0
20260505092014 10 215 19.3 35.4 0.00 0.00 0.00 74 1009.9
20260505091530 10 243 19.3 33.8 0.00 0.00 0.00 74 1009.9
20260505091014 10 232 16.1 30.6 0.00 0.00 0.00 74 1009.8
20260505090512 10 233 14.5 25.7 0.00 0.00 0.00 73 1009.9
20260505090029 10 223 16.1 25.7 0.00 0.00 0.00 73 1009.9
20260505085512 10 200 12.9 37.0 0.00 0.00 0.00 73 1009.9
20260505085016 10 261 14.5 37.0 0.00 0.00 0.00 72 1010.0
20260505084540 10 221 16.1 37.0 0.00 0.00 0.00 72 1010.0
20260505084012 10 237 14.5 27.4 0.00 0.00 0.00 72 1009.9
20260505083511 10 216 16.1 27.4 0.00 0.00 0.00 72 1010.1
20260505083029 10 215 12.9 25.7 0.00 0.00 0.00 72 1010.2
20260505082512 10 268 12.9 25.7 0.00 0.00 0.00 71 1010.3
20260505082010 11 254 14.5 25.7 0.00 0.00 0.00 71 1010.2
20260505081532 11 227 16.1 25.7 0.00 0.00 0.00 71 1010.4
20260505081011 11 222 14.5 27.4 0.00 0.00 0.00 70 1010.4
20260505080514 11 234 16.1 29.0 0.00 0.00 0.00 70 1010.3
20260505080030 11 259 14.5 29.0 0.00 0.00 0.00 70 1010.4
20260505075511 11 282 14.5 29.0 0.00 0.00 0.00 69 1010.4
20260505075015 11 233 16.1 29.0 0.00 0.00 0.00 69 1010.4
20260505074535 11 236 16.1 29.0 0.00 0.00 0.00 69 1010.4
20260505074012 11 217 17.7 27.4 0.00 0.00 0.00 69 1010.4
20260505073511 11 236 14.5 27.4 0.00 0.00 0.00 68 1010.5
20260505073039 11 263 14.5 27.4 0.00 0.00 0.00 68 1010.5
20260505072511 11 276 16.1 29.0 0.00 0.00 0.00 68 1010.4
20260505072010 11 258 14.5 29.0 0.00 0.00 0.00 68 1010.4
20260505071529 11 243 17.7 29.0 0.00 0.00 0.00 68 1010.3
20260505071015 11 246 16.1 32.2 0.00 0.00 0.00 68 1010.3
20260505070512 11 234 16.1 33.8 0.00 0.00 0.00 68 1010.3
20260505070039 11 299 19.3 37.0 0.00 0.00 0.00 68 1010.3
20260505065510 11 263 19.3 37.0 0.00 0.00 0.00 68 1010.4
20260505065011 11 344 17.7 35.4 0.00 0.00 0.00 68 1010.4
20260505064530 11 229 17.7 35.4 0.00 0.00 0.00 67 1010.4
20260505064012 11 210 19.3 35.4 0.00 0.00 0.00 67 1010.3
20260505063513 11 236 19.3 40.2 0.00 0.00 0.00 67 1010.4
20260505063031 11 262 19.3 40.2 0.00 0.00 0.00 67 1010.2
20260505062512 11 228 20.9 37.0 0.00 0.00 0.00 67 1010.3
20260505062011 11 271 20.9 37.0 0.00 0.00 0.00 67 1010.3
20260505061538 11 253 17.7 37.0 0.00 0.00 0.00 67 1010.3
20260505061011 11 219 19.3 40.2 0.00 0.00 0.00 67 1010.3
20260505060517 11 360 20.9 40.2 0.00 0.00 0.00 67 1010.3
20260505060030 11 223 14.5 30.6 0.00 0.00 0.00 67 1010.3
20260505055511 11 241 17.7 33.8 0.00 0.00 0.00 67 1010.3
20260505055013 12 223 16.1 33.8 0.00 0.00 0.00 66 1010.4
20260505054536 12 279 16.1 38.6 0.00 0.00 0.00 66 1010.5
20260505054014 12 268 14.5 38.6 0.00 0.00 0.00 66 1010.5
20260505053516 12 240 20.9 32.2 0.00 0.00 0.00 66 1010.4
20260505053033 12 286 16.1 32.2 0.00 0.00 0.00 65 1010.4
20260505052513 12 233 16.1 35.4 0.00 0.00 0.00 65 1010.3
20260505052011 12 250 16.1 35.4 0.00 0.00 0.00 65 1010.4
20260505051532 12 256 22.5 35.4 0.00 0.00 0.00 65 1010.4
20260505051011 12 243 22.5 40.2 0.00 0.00 0.00 64 1010.6
20260505050514 12 221 17.7 40.2 0.00 0.00 0.00 64 1010.5
20260505041548 13 198 17.7 37.0 0.00 0.00 0.00 62 1010.3
20260505041013 13 229 17.7 37.0 0.00 0.00 0.00 62 1010.3
20260505040511 13 211 19.3 38.6 0.00 0.00 0.00 61 1010.3
20260505040038 13 199 19.3 38.6 0.00 0.00 0.00 62 1010.3
20260505035516 13 202 17.7 38.6 0.00 0.00 0.00 61 1010.1
20260505035016 13 224 14.5 37.0 0.00 0.00 0.00 61 1010.1
20260505034532 13 215 14.5 32.2 0.00 0.00 0.00 60 1010.1
20260505034013 13 235 16.1 32.2 0.00 0.00 0.00 60 1010.1
20260505033511 13 215 17.7 32.2 0.00 0.00 0.00 59 1010.0
20260505033030 13 231 14.5 37.0 0.00 0.00 0.00 59 1010.1
20260505032510 13 196 19.3 37.0 0.00 0.00 0.00 59 1010.1
20260505032017 13 195 12.9 37.0 0.00 0.00 0.00 59 1010.1
20260505031539 13 217 14.5 37.0 0.00 0.00 0.00 59 1010.1
20260505031013 13 285 16.1 40.2 0.00 0.00 0.00 58 1010.0
20260505030511 13 230 17.7 40.2 0.00 0.00 0.00 58 1010.0
20260505030032 14 188 16.1 35.4 0.00 0.00 0.00 58 1010.0
20260505025512 14 192 19.3 41.8 0.00 0.00 0.00 57 1010.0
20260505025016 14 215 19.3 41.8 0.00 0.00 0.00 56 1010.0
20260505024533 14 205 17.7 40.2 0.00 0.00 0.00 55 1010.0
20260505024011 14 239 19.3 40.2 0.00 0.00 0.00 55 1010.1
20260505023512 14 188 14.5 40.2 0.00 0.00 0.00 54 1010.0
20260505023031 14 360 19.3 33.8 0.00 0.00 0.00 54 1010.0
20260505022514 14 360 12.9 25.7 0.00 0.00 0.00 54 1010.0
20260505022014 14 360 11.3 22.5 0.00 0.00 0.00 54 1009.8
20260505021533 14 360 12.9 22.5 0.00 0.00 0.00 54 1009.9
20260505021015 14 360 12.9 22.5 0.00 0.00 0.00 54 1009.9
20260505020511 14 360 11.3 22.5 0.00 0.00 0.00 54 1009.8
20260505020030 14 360 11.3 22.5 0.00 0.00 0.00 53 1009.8
20260505015513 14 360 11.3 22.5 0.00 0.00 0.00 53 1009.7
20260505015013 14 360 12.9 22.5 0.00 0.00 0.00 54 1009.6
20260505014534 14 360 12.9 24.1 0.00 0.00 0.00 54 1009.5
20260505014012 14 360 12.9 24.1 0.00 0.00 0.00 54 1009.4
20260505013516 14 360 11.3 22.5 0.00 0.00 0.00 53 1009.5
20260505013029 14 360 12.9 20.9 0.00 0.00 0.00 53 1009.4
20260505012512 14 360 11.3 19.3 0.00 0.00 0.00 53 1009.4
20260505012013 15 360 11.3 20.9 0.00 0.00 0.00 53 1009.4
20260505011532 15 360 11.3 20.9 0.00 0.00 0.00 53 1009.3
20260505011012 14 227 11.3 19.3 0.00 0.00 0.00 52 1009.3
20260505010513 15 249 11.3 19.3 0.00 0.00 0.00 53 1009.2
20260505010029 15 360 8.0 19.3 0.00 0.00 0.00 52 1009.2
20260505005511 15 225 11.3 19.3 0.00 0.00 0.00 52 1009.0
20260505005011 15 360 11.3 19.3 0.00 0.00 0.00 52 1009.0
20260505004533 15 360 12.9 19.3 0.00 0.00 0.00 51 1009.0
20260505004011 15 360 11.3 19.3 0.00 0.00 0.00 50 1008.9
20260505003513 15 360 11.3 19.3 0.00 0.00 0.00 50 1008.8
20260505003029 15 360 8.0 16.1 0.00 0.00 0.00 49 1008.7
20260505002511 15 360 8.0 14.5 0.00 0.00 0.00 48 1008.6
20260505002010 15 360 6.4 17.7 0.00 0.00 0.00 48 1008.6
20260505001530 15 360 8.0 17.7 0.00 0.00 0.00 47 1008.4
20260505001013 16 360 8.0 17.7 0.00 0.00 0.00 48 1008.5
20260505000517 16 360 8.0 16.1 0.00 0.00 0.00 47 1008.3
20260505000038 16 237 6.4 19.3 0.00 0.00 0.00 47 1008.2
20260504235513 16 232 8.0 19.3 0.00 0.00 0.00 46 1008.1
20260504235013 16 282 9.7 17.7 0.00 0.00 0.00 45 1008.0
20260504234534 16 230 6.4 16.1 0.00 0.00 0.00 45 1008.0
20260504234011 17 212 8.0 16.1 0.00 0.00 0.00 44 1007.9
20260504233516 17 233 8.0 14.5 0.00 0.00 0.00 44 1007.9
20260504233038 17 248 6.4 17.7 0.00 0.00 0.00 44 1007.9
20260504232513 17 258 6.4 20.9 0.00 0.00 0.00 43 1007.9
20260504232012 17 252 8.0 20.9 0.00 0.00 0.00 43 1007.8
20260504231528 17 360 8.0 19.3 0.00 0.00 0.00 43 1007.7
20260504231012 17 286 11.3 22.5 0.00 0.00 0.00 43 1007.6
20260504230512 18 259 9.7 27.4 0.00 0.00 0.00 42 1007.6
20260504230034 18 254 9.7 37.0 0.00 0.00 0.00 41 1007.4
20260504225511 18 252 12.9 37.0 0.00 0.00 0.00 40 1007.3
20260504225012 18 233 17.7 35.4 0.00 0.00 0.00 39 1007.3
20260504224531 19 249 14.5 35.4 0.00 0.00 0.00 40 1007.2
20260504224012 19 257 14.5 37.0 0.00 0.00 0.00 39 1007.3
20260504223511 19 279 16.1 38.6 0.00 0.00 0.00 38 1007.3
20260504223049 19 263 14.5 38.6 0.00 0.00 0.00 39 1007.2
20260504222513 19 259 11.3 25.7 0.00 0.00 0.00 39 1007.2
20260504222015 19 250 12.9 29.0 0.00 0.00 0.00 40 1007.2
20260504221528 19 258 16.1 29.0 0.00 0.00 0.00 39 1007.2
20260504221012 19 247 11.3 30.6 0.00 0.00 0.00 40 1007.1
20260504220513 20 267 16.1 30.6 0.00 0.00 0.00 39 1007.2
20260504220031 20 257 16.1 32.2 0.00 0.00 0.00 38 1007.1
20260504215511 19 265 14.5 32.2 0.00 0.00 0.00 39 1007.1
20260504215012 19 294 16.1 38.6 0.00 0.00 0.00 38 1007.2
20260504214531 19 281 16.1 38.6 0.00 0.00 0.00 39 1007.2
20260504214011 19 248 9.7 33.8 0.00 0.00 0.00 38 1007.1
20260504213516 20 261 14.5 43.5 0.00 0.00 0.00 37 1007.1
20260504213042 20 233 22.5 43.5 0.00 0.00 0.00 36 1007.2
20260504212513 20 251 16.1 43.5 0.00 0.00 0.00 38 1007.1
20260504212015 20 248 19.3 43.5 0.00 0.00 0.00 37 1007.1
20260504211533 20 262 16.1 37.0 0.00 0.00 0.00 38 1007.1
20260504211012 20 280 16.1 43.5 0.00 0.00 0.00 37 1007.1
20260504210512 20 288 20.9 43.5 0.00 0.00 0.00 37 1007.0
20260504210033 20 279 16.1 33.8 0.00 0.00 0.00 37 1007.1
20260504205513 20 241 16.1 46.7 0.00 0.00 0.00 38 1007.1
20260504205011 20 286 22.5 46.7 0.00 0.00 0.00 38 1007.0
20260504204541 20 269 19.3 46.7 0.00 0.00 0.00 38 1006.8
20260504204014 20 284 17.7 41.8 0.00 0.00 0.00 39 1006.9
20260504203512 20 228 16.1 33.8 0.00 0.00 0.00 38 1006.9
20260504203033 19 227 16.1 37.0 0.00 0.00 0.00 38 1006.9
20260504202511 20 259 17.7 41.8 0.00 0.00 0.00 38 1006.9
20260504202012 20 278 19.3 41.8 0.00 0.00 0.00 38 1006.8
20260504201531 20 261 20.9 49.9 0.00 0.00 0.00 38 1007.0
20260504201016 20 277 16.1 49.9 0.00 0.00 0.00 37 1006.9
20260504200513 20 264 19.3 41.8 0.00 0.00 0.00 37 1006.9
20260504200031 20 275 20.9 46.7 0.00 0.00 0.00 36 1007.0
20260504195512 20 318 20.9 48.3 0.00 0.00 0.00 37 1006.9
20260504195016 20 360 25.7 48.3 0.00 0.00 0.00 37 1006.9
20260504194529 20 271 29.0 48.3 0.00 0.00 0.00 38 1007.0
20260504194011 20 275 20.9 46.7 0.00 0.00 0.00 39 1007.0
20260504193512 20 257 22.5 49.9 0.00 0.00 0.00 39 1006.9
20260504193028 20 248 20.9 49.9 0.00 0.00 0.00 39 1007.0
20260504192511 20 241 25.7 49.9 0.00 0.00 0.00 38 1007.0
20260504192013 19 261 17.7 38.6 0.00 0.00 0.00 39 1007.0
20260504191528 19 249 14.5 49.9 0.00 0.00 0.00 40 1007.1
20260504191010 18 269 17.7 49.9 0.00 0.00 0.00 41 1007.0
20260504190514 18 297 16.1 41.8 0.00 0.00 0.00 42 1007.2
20260504190030 17 290 17.7 45.1 0.00 0.00 0.00 42 1007.3
20260504185512 17 284 16.1 48.3 0.00 0.00 0.00 43 1007.3
20260504185012 17 299 24.1 48.3 0.00 0.00 0.00 43 1007.4
20260504184531 17 311 25.7 49.9 0.00 0.00 0.00 42 1007.3
20260504184011 17 264 20.9 49.9 0.00 0.00 0.00 43 1007.5
20260504183513 17 278 19.3 41.8 0.00 0.00 0.00 42 1007.5
20260504183030 17 263 22.5 41.8 0.00 0.00 0.00 41 1007.4
20260504182514 17 290 24.1 56.3 0.00 0.00 0.00 41 1007.3
20260504182011 17 270 22.5 56.3 0.00 0.00 0.00 42 1007.2
20260504181534 17 283 12.9 35.4 0.00 0.00 0.00 42 1007.3
20260504181013 17 277 14.5 38.6 0.00 0.00 0.00 42 1007.3
20260504180513 17 247 19.3 38.6 0.00 0.00 0.00 40 1007.1
20260504180030 17 247 19.3 33.8 0.00 0.00 0.00 40 1007.2
20260504175511 17 270 9.7 41.8 0.00 0.00 0.00 40 1007.3
20260504175012 17 281 16.1 41.8 0.00 0.00 0.00 41 1007.3
20260504174532 17 236 22.5 41.8 0.00 0.00 0.00 41 1007.3
20260504174013 17 221 20.9 43.5 0.00 0.00 0.00 40 1007.3
20260504173512 17 246 25.7 43.5 0.00 0.00 0.00 40 1007.4
20260504173029 17 217 14.5 41.8 0.00 0.00 0.00 41 1007.3
20260504172512 17 269 19.3 41.8 0.00 0.00 0.00 39 1007.5
20260504172013 18 266 20.9 40.2 0.00 0.00 0.00 39 1007.4
20260504171529 18 340 20.9 41.8 0.00 0.00 0.00 39 1007.2
20260504171015 18 248 25.7 51.5 0.00 0.00 0.00 38 1007.3
20260504170511 18 254 24.1 54.7 0.00 0.00 0.00 38 1007.4